| time (UTC) | temp F | wind direction | speed MPH | gust MPH | rain 1hr in | rain 24hr in | rain mn in | humidity % | barometer mb |
| 20260503032644 | 56 | 274 | 1.0 | 1.0 | 0.00 | 0.00 | 0.00 | 63 | 1020.7 |
| 20260503032143 | 56 | 304 | 1.0 | 2.0 | 0.00 | 0.00 | 0.00 | 62 | 1020.7 |
| 20260503031639 | 56 | 280 | 1.0 | 2.0 | 0.00 | 0.00 | 0.00 | 61 | 1020.6 |
| 20260503031137 | 56 | 290 | 1.0 | 2.0 | 0.00 | 0.00 | 0.00 | 60 | 1020.6 |
| 20260503030633 | 56 | 301 | 2.0 | 3.0 | 0.00 | 0.00 | 0.00 | 61 | 1020.4 |
| 20260503030130 | 56 | 6 | 4.0 | 5.0 | 0.00 | 0.00 | 0.00 | 63 | 1020.5 |
| 20260503025626 | 53 | 285 | 0.0 | 0.0 | 0.00 | 0.00 | 0.00 | 68 | 1020.4 |
| 20260503025125 | 53 | 316 | 1.0 | 2.0 | 0.00 | 0.00 | 0.00 | 69 | 1020.4 |
| 20260503024621 | 53 | 316 | 1.0 | 1.0 | 0.00 | 0.00 | 0.00 | 76 | 1020.1 |
| 20260503024118 | 54 | 278 | 0.0 | 1.0 | 0.00 | 0.00 | 0.00 | 69 | 1019.8 |
| 20260503023615 | 54 | 277 | 1.0 | 1.0 | 0.00 | 0.00 | 0.00 | 72 | 1019.8 |
| 20260503023112 | 55 | 266 | 0.0 | 1.0 | 0.00 | 0.00 | 0.00 | 70 | 1019.6 |
| 20260503022608 | 55 | 273 | 1.0 | 1.0 | 0.00 | 0.00 | 0.00 | 64 | 1019.8 |
| 20260503022103 | 55 | 271 | 1.0 | 1.0 | 0.00 | 0.00 | 0.00 | 67 | 1019.6 |
| 20260503021600 | 56 | 278 | 0.0 | 1.0 | 0.00 | 0.00 | 0.00 | 64 | 1019.4 |
| 20260503021057 | 56 | 282 | 0.0 | 0.0 | 0.00 | 0.00 | 0.00 | 59 | 1019.5 |
| 20260503020554 | 56 | 286 | 0.0 | 0.0 | 0.00 | 0.00 | 0.00 | 59 | 1019.4 |
| 20260503020050 | 55 | 283 | 0.0 | 1.0 | 0.00 | 0.00 | 0.00 | 61 | 1019.4 |
| 20260503015547 | 55 | 282 | 1.0 | 1.0 | 0.00 | 0.00 | 0.00 | 64 | 1019.4 |
| 20260503015045 | 54 | 287 | 0.0 | 1.0 | 0.00 | 0.00 | 0.00 | 70 | 1019.4 |
| 20260503014540 | 54 | 282 | 2.0 | 2.0 | 0.00 | 0.00 | 0.00 | 71 | 1019.2 |
| 20260503014039 | 54 | 270 | 1.0 | 1.0 | 0.00 | 0.00 | 0.00 | 72 | 1019.2 |
| 20260503013535 | 55 | 276 | 1.0 | 1.0 | 0.00 | 0.00 | 0.00 | 71 | 1018.9 |
| 20260503013033 | 55 | 268 | 0.0 | 1.0 | 0.00 | 0.00 | 0.00 | 72 | 1019.0 |
| 20260503012530 | 55 | 278 | 1.0 | 1.0 | 0.00 | 0.00 | 0.00 | 70 | 1018.9 |
| 20260503012027 | 56 | 276 | 1.0 | 1.0 | 0.00 | 0.00 | 0.00 | 68 | 1018.7 |
| 20260503011523 | 56 | 272 | 1.0 | 2.0 | 0.00 | 0.00 | 0.00 | 66 | 1018.8 |
| 20260503011021 | 56 | 268 | 0.0 | 0.0 | 0.00 | 0.00 | 0.00 | 67 | 1018.5 |
| 20260503010517 | 57 | 272 | 1.0 | 1.0 | 0.00 | 0.00 | 0.00 | 64 | 1018.7 |
| 20260503010015 | 57 | 261 | 1.0 | 1.0 | 0.00 | 0.00 | 0.00 | 64 | 1018.4 |
| 20260503005512 | 58 | 266 | 1.0 | 1.0 | 0.00 | 0.00 | 0.00 | 61 | 1018.4 |
| 20260503005009 | 58 | 273 | 1.0 | 1.0 | 0.00 | 0.00 | 0.00 | 62 | 1018.5 |
| 20260503004505 | 59 | 271 | 1.0 | 2.0 | 0.00 | 0.00 | 0.00 | 59 | 1018.3 |
| 20260503004003 | 59 | 269 | 1.0 | 1.0 | 0.00 | 0.00 | 0.00 | 56 | 1018.5 |
| 20260503003459 | 60 | 247 | 0.0 | 0.0 | 0.00 | 0.00 | 0.00 | 55 | 1018.5 |
| 20260503002957 | 61 | 276 | 0.0 | 0.0 | 0.00 | 0.00 | 0.00 | 50 | 1018.2 |
| 20260503002454 | 61 | 275 | 0.0 | 0.0 | 0.00 | 0.00 | 0.00 | 47 | 1018.0 |
| 20260503001949 | 61 | 275 | 1.0 | 1.0 | 0.00 | 0.00 | 0.00 | 47 | 1017.9 |
| 20260503001447 | 62 | 272 | 0.0 | 0.0 | 0.00 | 0.00 | 0.00 | 45 | 1018.0 |
| 20260503000944 | 62 | 271 | 0.0 | 0.0 | 0.00 | 0.00 | 0.00 | 44 | 1017.9 |
| 20260503000441 | 63 | 279 | 0.0 | 1.0 | 0.00 | 0.00 | 0.00 | 43 | 1018.2 |
| 20260502235938 | 63 | 277 | 1.0 | 1.0 | 0.00 | 0.00 | 0.00 | 42 | 1017.6 |
| 20260502235435 | 63 | 281 | 0.0 | 1.0 | 0.00 | 0.00 | 0.00 | 42 | 1017.8 |
| 20260502234933 | 64 | 291 | 2.0 | 2.0 | 0.00 | 0.00 | 0.00 | 40 | 1017.5 |
| 20260502234429 | 64 | 277 | 0.0 | 0.0 | 0.00 | 0.00 | 0.00 | 41 | 1017.5 |
| 20260502233926 | 64 | 276 | 1.0 | 2.0 | 0.00 | 0.00 | 0.00 | 41 | 1017.5 |
| 20260502233421 | 65 | 264 | 0.0 | 1.0 | 0.00 | 0.00 | 0.00 | 40 | 1017.6 |
| 20260502232919 | 65 | 295 | 1.0 | 1.0 | 0.00 | 0.00 | 0.00 | 40 | 1017.5 |
| 20260502232415 | 65 | 274 | 0.0 | 0.0 | 0.00 | 0.00 | 0.00 | 40 | 1017.6 |
| 20260502231912 | 65 | 267 | 2.0 | 2.0 | 0.00 | 0.00 | 0.00 | 39 | 1017.5 |
| 20260502231409 | 65 | 274 | 2.0 | 2.0 | 0.00 | 0.00 | 0.00 | 38 | 1017.4 |
| 20260502230907 | 65 | 291 | 2.0 | 2.0 | 0.00 | 0.00 | 0.00 | 37 | 1017.4 |
| 20260502230405 | 66 | 268 | 0.0 | 1.0 | 0.00 | 0.00 | 0.00 | 40 | 1017.3 |
| 20260502225901 | 66 | 277 | 1.0 | 2.0 | 0.00 | 0.00 | 0.00 | 36 | 1017.4 |
| 20260502225353 | 66 | 315 | 3.0 | 5.0 | 0.00 | 0.00 | 0.00 | 37 | 1017.3 |
| 20260502224850 | 66 | 300 | 1.0 | 1.0 | 0.00 | 0.00 | 0.00 | 41 | 1017.4 |
| 20260502224346 | 66 | 266 | 2.0 | 3.0 | 0.00 | 0.00 | 0.00 | 35 | 1017.1 |
| 20260502223843 | 66 | 276 | 1.0 | 1.0 | 0.00 | 0.00 | 0.00 | 38 | 1017.4 |
| 20260502223341 | 67 | 287 | 1.0 | 2.0 | 0.00 | 0.00 | 0.00 | 36 | 1017.4 |
| 20260502222838 | 67 | 270 | 1.0 | 1.0 | 0.00 | 0.00 | 0.00 | 38 | 1017.4 |
| 20260502222336 | 67 | 271 | 2.0 | 2.0 | 0.00 | 0.00 | 0.00 | 38 | 1017.6 |
| 20260502221832 | 66 | 298 | 2.0 | 2.0 | 0.00 | 0.00 | 0.00 | 36 | 1017.6 |
| 20260502221328 | 66 | 343 | 4.0 | 5.0 | 0.00 | 0.00 | 0.00 | 38 | 1017.3 |
| 20260502220826 | 66 | 332 | 0.0 | 1.0 | 0.00 | 0.00 | 0.00 | 38 | 1017.2 |
| 20260502220321 | 67 | 346 | 5.0 | 7.0 | 0.00 | 0.00 | 0.00 | 37 | 1017.4 |
| 20260502215818 | 68 | 271 | 2.0 | 2.0 | 0.00 | 0.00 | 0.00 | 36 | 1017.3 |
| 20260502215315 | 68 | 283 | 2.0 | 2.0 | 0.00 | 0.00 | 0.00 | 34 | 1017.1 |
| 20260502214812 | 67 | 293 | 2.0 | 2.0 | 0.00 | 0.00 | 0.00 | 35 | 1017.3 |
| 20260502214309 | 67 | 288 | 2.0 | 2.0 | 0.00 | 0.00 | 0.00 | 37 | 1017.1 |
| 20260502213806 | 67 | 4 | 5.0 | 7.0 | 0.00 | 0.00 | 0.00 | 35 | 1017.3 |
| 20260502213303 | 67 | 1 | 2.0 | 2.0 | 0.00 | 0.00 | 0.00 | 35 | 1017.0 |
| 20260502212802 | 66 | 290 | 2.0 | 3.0 | 0.00 | 0.00 | 0.00 | 38 | 1017.3 |
| 20260502212300 | 66 | 358 | 7.0 | 8.0 | 0.00 | 0.00 | 0.00 | 36 | 1017.4 |
| 20260502211756 | 66 | 312 | 4.0 | 6.0 | 0.00 | 0.00 | 0.00 | 39 | 1017.1 |
| 20260502211252 | 66 | 302 | 1.0 | 1.0 | 0.00 | 0.00 | 0.00 | 40 | 1017.0 |
| 20260502210749 | 65 | 334 | 6.0 | 7.0 | 0.00 | 0.00 | 0.00 | 39 | 1017.1 |
| 20260502210241 | 65 | 357 | 7.0 | 7.0 | 0.00 | 0.00 | 0.00 | 37 | 1017.3 |
| 20260502205738 | 65 | 28 | 9.0 | 13.0 | 0.00 | 0.00 | 0.00 | 37 | 1017.6 |
| 20260502205234 | 65 | 347 | 4.0 | 7.0 | 0.00 | 0.00 | 0.00 | 38 | 1017.2 |
| 20260502204732 | 66 | 358 | 11.0 | 13.0 | 0.00 | 0.00 | 0.00 | 38 | 1017.3 |
| 20260502204229 | 66 | 274 | 1.0 | 2.0 | 0.00 | 0.00 | 0.00 | 39 | 1017.5 |
| 20260502203726 | 66 | 353 | 6.0 | 8.0 | 0.00 | 0.00 | 0.00 | 35 | 1017.5 |
| 20260502203224 | 66 | 266 | 4.0 | 5.0 | 0.00 | 0.00 | 0.00 | 38 | 1017.3 |
| 20260502202718 | 65 | 348 | 7.0 | 9.0 | 0.00 | 0.00 | 0.00 | 40 | 1017.4 |
| 20260502202217 | 66 | 355 | 7.0 | 8.0 | 0.00 | 0.00 | 0.00 | 38 | 1017.5 |
| 20260502201714 | 66 | 343 | 4.0 | 5.0 | 0.00 | 0.00 | 0.00 | 38 | 1017.4 |
| 20260502201210 | 66 | 336 | 6.0 | 6.0 | 0.00 | 0.00 | 0.00 | 38 | 1017.5 |
| 20260502200706 | 67 | 279 | 3.0 | 5.0 | 0.00 | 0.00 | 0.00 | 34 | 1017.4 |
| 20260502200202 | 65 | 357 | 6.0 | 9.0 | 0.00 | 0.00 | 0.00 | 38 | 1017.5 |
| 20260502195701 | 66 | 350 | 8.0 | 11.0 | 0.00 | 0.00 | 0.00 | 35 | 1017.6 |
| 20260502195157 | 66 | 28 | 3.0 | 3.0 | 0.00 | 0.00 | 0.00 | 38 | 1017.7 |
| 20260502194654 | 66 | 22 | 6.0 | 8.0 | 0.00 | 0.00 | 0.00 | 37 | 1017.7 |
| 20260502194150 | 66 | 328 | 5.0 | 8.0 | 0.00 | 0.00 | 0.00 | 35 | 1017.6 |
| 20260502193647 | 66 | 274 | 2.0 | 3.0 | 0.00 | 0.00 | 0.00 | 39 | 1017.8 |
| 20260502193144 | 67 | 291 | 3.0 | 5.0 | 0.00 | 0.00 | 0.00 | 41 | 1017.7 |
| 20260502192639 | 65 | 336 | 4.0 | 6.0 | 0.00 | 0.00 | 0.00 | 41 | 1017.6 |
| 20260502192137 | 64 | 346 | 6.0 | 7.0 | 0.00 | 0.00 | 0.00 | 40 | 1017.8 |
| 20260502191634 | 64 | 2 | 4.0 | 6.0 | 0.00 | 0.00 | 0.00 | 39 | 1017.7 |
| 20260502191131 | 65 | 348 | 6.0 | 8.0 | 0.00 | 0.00 | 0.00 | 38 | 1018.0 |
| 20260502190629 | 65 | 330 | 5.0 | 6.0 | 0.00 | 0.00 | 0.00 | 38 | 1018.2 |
| 20260502190126 | 65 | 325 | 6.0 | 8.0 | 0.00 | 0.00 | 0.00 | 38 | 1017.9 |
| 20260502185620 | 65 | 1 | 5.0 | 6.0 | 0.00 | 0.00 | 0.00 | 42 | 1017.9 |
| 20260502185118 | 66 | 23 | 10.0 | 11.0 | 0.00 | 0.00 | 0.00 | 36 | 1018.2 |
| 20260502184614 | 67 | 330 | 3.0 | 3.0 | 0.00 | 0.00 | 0.00 | 38 | 1018.3 |
| 20260502184109 | 65 | 282 | 3.0 | 3.0 | 0.00 | 0.00 | 0.00 | 38 | 1018.0 |
| 20260502183606 | 64 | 311 | 5.0 | 7.0 | 0.00 | 0.00 | 0.00 | 40 | 1018.2 |
| 20260502183102 | 64 | 0 | 14.0 | 17.0 | 0.00 | 0.00 | 0.00 | 35 | 1018.5 |
| 20260502182557 | 65 | 341 | 11.0 | 13.0 | 0.00 | 0.00 | 0.00 | 36 | 1018.2 |
| 20260502182053 | 64 | 349 | 5.0 | 6.0 | 0.00 | 0.00 | 0.00 | 35 | 1018.3 |
| 20260502181551 | 65 | 318 | 9.0 | 10.0 | 0.00 | 0.00 | 0.00 | 34 | 1018.5 |
| 20260502181050 | 64 | 337 | 7.0 | 8.0 | 0.00 | 0.00 | 0.00 | 36 | 1018.0 |
| 20260502180547 | 65 | 354 | 2.0 | 3.0 | 0.00 | 0.00 | 0.00 | 40 | 1018.2 |
| 20260502170500 | 64 | 349 | 4.0 | 5.0 | 0.00 | 0.00 | 0.00 | 44 | 1018.4 |
| 20260502163944 | 62 | 354 | 3.0 | 5.0 | 0.00 | 0.00 | 0.00 | 45 | 1018.8 |
| 20260502163439 | 62 | 359 | 7.0 | 8.0 | 0.00 | 0.00 | 0.00 | 46 | 1018.8 |
| 20260502162937 | 62 | 270 | 4.0 | 6.0 | 0.00 | 0.00 | 0.00 | 48 | 1018.9 |
| 20260502162434 | 61 | 269 | 3.0 | 5.0 | 0.00 | 0.00 | 0.00 | 44 | 1018.8 |
| 20260502161931 | 61 | 21 | 7.0 | 9.0 | 0.00 | 0.00 | 0.00 | 47 | 1018.7 |
| 20260502161427 | 60 | 352 | 8.0 | 9.0 | 0.00 | 0.00 | 0.00 | 47 | 1018.8 |
| 20260502160925 | 60 | 332 | 5.0 | 6.0 | 0.00 | 0.00 | 0.00 | 47 | 1019.0 |
| 20260502160423 | 60 | 13 | 9.0 | 11.0 | 0.00 | 0.00 | 0.00 | 47 | 1019.0 |
| 20260502151901 | 58 | 10 | 8.0 | 11.0 | 0.00 | 0.00 | 0.00 | 49 | 1018.7 |
| 20260502151357 | 58 | 0 | 10.0 | 11.0 | 0.00 | 0.00 | 0.00 | 49 | 1018.9 |
| 20260502150855 | 58 | 341 | 7.0 | 8.0 | 0.00 | 0.00 | 0.00 | 51 | 1018.8 |
| 20260502150351 | 58 | 27 | 6.0 | 8.0 | 0.00 | 0.00 | 0.00 | 52 | 1018.6 |
| 20260502130740 | 55 | 305 | 2.0 | 2.0 | 0.00 | 0.00 | 0.00 | 62 | 1017.8 |
| 20260502130237 | 55 | 342 | 5.0 | 5.0 | 0.00 | 0.00 | 0.00 | 64 | 1017.8 |
| 20260502123723 | 54 | 283 | 1.0 | 1.0 | 0.00 | 0.00 | 0.00 | 64 | 1017.8 |
| 20260502123220 | 54 | 294 | 1.0 | 1.0 | 0.00 | 0.00 | 0.00 | 62 | 1017.7 |
| 20260502122717 | 54 | 333 | 3.0 | 3.0 | 0.00 | 0.00 | 0.00 | 66 | 1017.7 |
| 20260502122213 | 54 | 301 | 2.0 | 2.0 | 0.00 | 0.00 | 0.00 | 66 | 1017.5 |
| 20260502121711 | 54 | 318 | 1.0 | 2.0 | 0.00 | 0.00 | 0.00 | 65 | 1017.5 |
| 20260502121209 | 53 | 315 | 1.0 | 1.0 | 0.00 | 0.00 | 0.00 | 65 | 1017.5 |
| 20260502120705 | 53 | 305 | 1.0 | 1.0 | 0.00 | 0.00 | 0.00 | 64 | 1017.5 |
| 20260502120202 | 53 | 290 | 0.0 | 1.0 | 0.00 | 0.00 | 0.00 | 64 | 1017.4 |
| 20260502115700 | 54 | 277 | 0.0 | 0.0 | 0.00 | 0.00 | 0.00 | 63 | 1017.2 |
| 20260502115156 | 54 | 291 | 0.0 | 1.0 | 0.00 | 0.00 | 0.00 | 62 | 1017.0 |
| 20260502114652 | 54 | 291 | 1.0 | 1.0 | 0.00 | 0.00 | 0.00 | 62 | 1017.1 |
| 20260502114149 | 54 | 280 | 1.0 | 1.0 | 0.00 | 0.00 | 0.00 | 62 | 1016.9 |
| 20260502113646 | 53 | 307 | 2.0 | 2.0 | 0.00 | 0.00 | 0.00 | 63 | 1016.9 |
| 20260502113145 | 53 | 289 | 0.0 | 1.0 | 0.00 | 0.00 | 0.00 | 62 | 1016.9 |
| 20260502112642 | 53 | 286 | 0.0 | 0.0 | 0.00 | 0.00 | 0.00 | 62 | 1016.9 |
| 20260502112139 | 53 | 279 | 0.0 | 0.0 | 0.00 | 0.00 | 0.00 | 63 | 1016.8 |
| 20260502111637 | 53 | 276 | 0.0 | 0.0 | 0.00 | 0.00 | 0.00 | 62 | 1016.7 |
| 20260502111134 | 53 | 306 | 1.0 | 1.0 | 0.00 | 0.00 | 0.00 | 62 | 1016.7 |
| 20260502110632 | 53 | 287 | 0.0 | 0.0 | 0.00 | 0.00 | 0.00 | 61 | 1016.7 |
| 20260502110129 | 53 | 279 | 0.0 | 0.0 | 0.00 | 0.00 | 0.00 | 61 | 1017.0 |
| 20260502105626 | 53 | 297 | 1.0 | 1.0 | 0.00 | 0.00 | 0.00 | 61 | 1016.6 |
| 20260502105123 | 53 | 320 | 5.0 | 6.0 | 0.00 | 0.00 | 0.00 | 60 | 1016.7 |
| 20260502104620 | 53 | 338 | 1.0 | 1.0 | 0.00 | 0.00 | 0.00 | 63 | 1016.7 |
| 20260502104118 | 54 | 320 | 1.0 | 2.0 | 0.00 | 0.00 | 0.00 | 61 | 1016.9 |
| 20260502103615 | 54 | 294 | 1.0 | 1.0 | 0.00 | 0.00 | 0.00 | 60 | 1017.0 |
| 20260502103113 | 54 | 285 | 0.0 | 1.0 | 0.00 | 0.00 | 0.00 | 59 | 1017.0 |
| 20260502102610 | 54 | 305 | 1.0 | 2.0 | 0.00 | 0.00 | 0.00 | 59 | 1016.7 |
| 20260502102106 | 54 | 286 | 1.0 | 1.0 | 0.00 | 0.00 | 0.00 | 59 | 1016.8 |
| 20260502101604 | 54 | 333 | 3.0 | 3.0 | 0.00 | 0.00 | 0.00 | 58 | 1016.6 |
| 20260502101102 | 54 | 280 | 1.0 | 2.0 | 0.00 | 0.00 | 0.00 | 57 | 1016.3 |
| 20260502100601 | 54 | 306 | 1.0 | 1.0 | 0.00 | 0.00 | 0.00 | 58 | 1016.4 |
| 20260502091033 | 55 | 338 | 4.0 | 6.0 | 0.00 | 0.00 | 0.00 | 53 | 1016.8 |
| 20260502090529 | 56 | 336 | 4.0 | 5.0 | 0.00 | 0.00 | 0.00 | 54 | 1016.6 |
| 20260502071419 | 57 | 284 | 2.0 | 2.0 | 0.00 | 0.00 | 0.00 | 51 | 1017.0 |
| 20260502070917 | 57 | 345 | 9.0 | 14.0 | 0.00 | 0.00 | 0.00 | 49 | 1016.6 |
| 20260502070414 | 57 | 348 | 4.0 | 5.0 | 0.00 | 0.00 | 0.00 | 51 | 1016.9 |
| 20260502065912 | 57 | 6 | 8.0 | 9.0 | 0.00 | 0.00 | 0.00 | 49 | 1017.2 |
| 20260502065411 | 57 | 1 | 5.0 | 6.0 | 0.00 | 0.00 | 0.00 | 51 | 1017.0 |
| 20260502064908 | 58 | 356 | 5.0 | 7.0 | 0.00 | 0.00 | 0.00 | 49 | 1017.0 |
| 20260502064406 | 58 | 342 | 4.0 | 6.0 | 0.00 | 0.00 | 0.00 | 48 | 1016.9 |
| 20260502063903 | 58 | 354 | 7.0 | 8.0 | 0.00 | 0.00 | 0.00 | 49 | 1017.0 |
| 20260502063401 | 58 | 359 | 6.0 | 6.0 | 0.00 | 0.00 | 0.00 | 49 | 1017.0 |
| 20260502062858 | 58 | 20 | 6.0 | 7.0 | 0.00 | 0.00 | 0.00 | 50 | 1017.1 |
| 20260502062355 | 58 | 345 | 6.0 | 7.0 | 0.00 | 0.00 | 0.00 | 49 | 1017.1 |
| 20260502061854 | 58 | 9 | 4.0 | 6.0 | 0.00 | 0.00 | 0.00 | 52 | 1017.1 |
| 20260502061351 | 58 | 351 | 6.0 | 8.0 | 0.00 | 0.00 | 0.00 | 49 | 1017.3 |
| 20260502060847 | 58 | 327 | 2.0 | 2.0 | 0.00 | 0.00 | 0.00 | 51 | 1017.4 |
| 20260502060343 | 58 | 359 | 6.0 | 7.0 | 0.00 | 0.00 | 0.00 | 49 | 1017.3 |
| 20260502055840 | 59 | 347 | 6.0 | 8.0 | 0.00 | 0.00 | 0.00 | 51 | 1017.3 |
| 20260502055338 | 59 | 2 | 8.0 | 9.0 | 0.00 | 0.00 | 0.00 | 49 | 1017.3 |
| 20260502054837 | 59 | 5 | 5.0 | 6.0 | 0.00 | 0.00 | 0.00 | 52 | 1017.1 |
| 20260502054334 | 58 | 334 | 3.0 | 3.0 | 0.00 | 0.00 | 0.00 | 54 | 1017.0 |
| 20260502053831 | 59 | 338 | 5.0 | 8.0 | 0.00 | 0.00 | 0.00 | 51 | 1017.0 |
| 20260502053328 | 59 | 349 | 6.0 | 7.0 | 0.00 | 0.00 | 0.00 | 53 | 1016.9 |
| 20260502052826 | 59 | 344 | 3.0 | 3.0 | 0.00 | 0.00 | 0.00 | 58 | 1016.9 |
| 20260502052324 | 59 | 353 | 2.0 | 2.0 | 0.00 | 0.00 | 0.00 | 57 | 1017.1 |
| 20260502051822 | 59 | 309 | 2.0 | 2.0 | 0.00 | 0.00 | 0.00 | 56 | 1017.2 |
| 20260502051320 | 59 | 4 | 3.0 | 5.0 | 0.00 | 0.00 | 0.00 | 58 | 1016.9 |
| 20260502050816 | 59 | 327 | 3.0 | 5.0 | 0.00 | 0.00 | 0.00 | 57 | 1016.8 |
| 20260502050313 | 59 | 16 | 6.0 | 7.0 | 0.00 | 0.00 | 0.00 | 60 | 1017.0 |
| 20260502045810 | 59 | 17 | 6.0 | 7.0 | 0.00 | 0.00 | 0.00 | 61 | 1016.7 |
| 20260502045306 | 59 | 354 | 4.0 | 5.0 | 0.00 | 0.00 | 0.00 | 62 | 1016.5 |
| 20260502044804 | 59 | 12 | 6.0 | 7.0 | 0.00 | 0.00 | 0.00 | 64 | 1016.6 |
| 20260502044259 | 60 | 333 | 3.0 | 3.0 | 0.00 | 0.00 | 0.00 | 65 | 1016.7 |
| 20260502043757 | 60 | 338 | 3.0 | 3.0 | 0.00 | 0.00 | 0.00 | 65 | 1016.7 |
| 20260502043254 | 59 | 342 | 4.0 | 6.0 | 0.00 | 0.00 | 0.00 | 67 | 1016.7 |
| 20260502042754 | 59 | 312 | 2.0 | 2.0 | 0.00 | 0.00 | 0.00 | 74 | 1016.9 |
| 20260502042251 | 59 | 280 | 0.0 | 0.0 | 0.00 | 0.00 | 0.00 | 73 | 1016.5 |
| 20260502041749 | 59 | 294 | 0.0 | 1.0 | 0.00 | 0.00 | 0.00 | 74 | 1016.9 |
| 20260502041246 | 59 | 284 | 0.0 | 1.0 | 0.00 | 0.00 | 0.00 | 74 | 1016.4 |
| 20260502040743 | 59 | 309 | 1.0 | 1.0 | 0.00 | 0.00 | 0.00 | 76 | 1016.6 |
| 20260502040240 | 59 | 298 | 1.0 | 1.0 | 0.00 | 0.00 | 0.00 | 75 | 1016.6 |
| 20260502035736 | 59 | 317 | 1.0 | 1.0 | 0.00 | 0.00 | 0.00 | 75 | 1016.5 |
| 20260502035233 | 59 | 285 | 0.0 | 0.0 | 0.00 | 0.00 | 0.00 | 74 | 1016.6 |
| 20260502034730 | 59 | 277 | 0.0 | 0.0 | 0.00 | 0.00 | 0.00 | 73 | 1016.6 |
| 20260502034228 | 59 | 281 | 1.0 | 1.0 | 0.00 | 0.00 | 0.00 | 73 | 1016.9 |
| 20260502033726 | 59 | 295 | 1.0 | 1.0 | 0.00 | 0.00 | 0.00 | 73 | 1016.7 |
| 20260502033224 | 60 | 279 | 0.0 | 0.0 | 0.00 | 0.00 | 0.00 | 73 | 1016.9 |